Air Resources Laboratory banner image
Air Resources Laboratory web site National Oceanic and Atmospheric Administration (NOAA)

fl zone


SCZ050-WAZ558-NCZ071-TXZ119-213-PAZ071-DCZ001-FLZ074-172-MI076-
NYZ176-178-MAZ016-IL014-TNZ027-NJZ106-GAZ044-MD014-170000-

...Gateway Observations for Charleston International...

CITY           SKY/WX    TMP DP  RH WIND       PRES   REMARKS
Chas Airport   FAIR      80  74  81 S10       30.07R
Seattle        MOSUNNY   72  46  39 N5        30.25F
Charlotte      MOCLDY    72  69  90 N9G23     30.10R
Dallas DFW     CLOUDY    50  47  89 N9        30.22S
Dallas Love    CLOUDY    51  48  89 N6        30.23F
Philladelphia  CLOUDY    54  34  46 W6        30.10S
Wash National  CLOUDY    59  40  49 SW7       30.13R
Baltimore      CLOUDY    54  42  64 CALM      30.12R
Miami          FAIR      83  75  77 E16       30.04R HX  90
Detroit        FAIR      53  28  38 SW12      29.97F
Newark         MOCLDY    51  35  54 SW13      30.08R
Laguardia      MOCLDY    55  32  41 SW12      30.06S
J F K          MOCLDY    53  37  54 W14       30.08S
Boston Logan   FAIR      54  31  41 W10       30.00R
Ft. Lauderdale FAIR      83  77  82 E14       30.04R HX  92
Chicago O'Hare FAIR      57  33  40 SW15G24   29.99S
Chicago Midway FAIR      56  32  40 SW13G26   30.01S
Houston Bush   CLOUDY    58  57  97 N9        30.09R
Houston Hobby  CLOUDY    60  56  86 NW12      30.08R
Nashville      LGT RAIN  53  49  86 CALM      30.21S
Atlanta        MOCLDY    74  65  73 N9        30.12R


AMZ555-FLZ064-170130-
Sebastian Inlet to Jupiter Inlet 0-20 nm-Martin-
717 PM EDT Tue Oct 16 2018

.NOW...
Through 930 pm, isolated showers will affect Martin county and
its coastal waters as these move to the northwest at 10 to 15 mph.
Otherwise, mostly clear skies with low temperatures dropping to
the low to mid 70s tonight are expected.